User: anonymous   Login
Location: Unspecified
(0.0000°N, 0.0000°E)
Time: 21:25:31
(UTC+00:00)
Language:

UNK - Orbit

View from above orbital plane
View from above orbital plane
View from above satellite
View from above satellite

Ground track
Ground track

The orbit data is extracted from the following two-line orbital elements,

1 27945U 03042G   18051.93184289 +.00000032 +00000-0 +14727-4 0  9995
2 27945 097.9753 190.6769 0012298 174.5481 185.5859 14.64778120769013
Epoch (UTC): 20 February 2018 22:21:51
Eccentricity: 0.0012298
inclination: 97.9753°
perigee height: 669 km
apogee height: 686 km
right ascension of ascending node: 190.6769°
argument of perigee: 174.5481°
revolutions per day: 14.64778120
mean anomaly at epoch: 185.5859°
orbit number at epoch: 76901

The dashed part of the orbit path shows where the satellite is in the earth's shadow,  

DLR